Time,TemperatureF,DewpointF,PressureIn,WindDirection,WindDirectionDegrees,WindSpeedMPH,WindSpeedGustMPH,Humidity,HourlyPrecipIn,Conditions,Clouds,dailyrainin,SoftwareType,DateUTC
2013-02-06 00:02:00,36.0,25.0,30.00,South,171,7.0,8.0,64,0.00,,,0.00,Wunderground v.1.15,2013-02-06 07:02:00,
2013-02-06 00:08:00,35.6,24.6,30.00,South,181,7.0,9.0,64,0.00,,,0.00,Wunderground v.1.15,2013-02-06 07:08:00,
2013-02-06 00:14:00,35.6,25.0,30.00,South,179,7.0,7.0,65,0.00,,,0.00,Wunderground v.1.15,2013-02-06 07:14:00,
2013-02-06 00:20:00,35.8,25.2,30.00,South,169,7.0,7.0,65,0.00,,,0.00,Wunderground v.1.15,2013-02-06 07:20:00,
2013-02-06 00:26:00,36.2,25.2,30.00,South,181,7.0,7.0,64,0.00,,,0.00,Wunderground v.1.15,2013-02-06 07:26:00,
2013-02-06 00:32:00,35.9,24.5,30.00,SSW,195,3.0,5.0,63,0.00,,,0.00,Wunderground v.1.15,2013-02-06 07:32:00,
2013-02-06 00:38:00,34.6,24.4,30.00,WSW,249,1.0,5.0,66,0.00,,,0.00,Wunderground v.1.15,2013-02-06 07:38:00,
2013-02-06 00:44:00,35.4,24.8,30.00,SW,220,3.0,4.0,65,0.00,,,0.00,Wunderground v.1.15,2013-02-06 07:44:00,
2013-02-06 00:50:00,35.6,24.2,30.00,WSW,258,2.0,2.0,63,0.00,,,0.00,Wunderground v.1.15,2013-02-06 07:50:00,
2013-02-06 00:56:00,35.1,24.1,30.00,West,267,2.0,3.0,64,0.00,,,0.00,Wunderground v.1.15,2013-02-06 07:56:00,
2013-02-06 01:02:00,34.2,24.0,29.99,West,267,2.0,2.0,66,0.00,,,0.00,Wunderground v.1.15,2013-02-06 08:02:00,
2013-02-06 01:08:00,33.5,23.7,29.99,West,266,2.0,2.0,67,0.00,,,0.00,Wunderground v.1.15,2013-02-06 08:08:00,
2013-02-06 01:14:00,32.8,23.7,29.99,West,266,1.0,2.0,69,0.00,,,0.00,Wunderground v.1.15,2013-02-06 08:14:00,
2013-02-06 01:20:00,32.4,23.7,29.99,West,262,1.0,1.0,70,0.00,,,0.00,Wunderground v.1.15,2013-02-06 08:20:00,
2013-02-06 01:26:00,32.1,23.8,29.99,West,262,1.0,1.0,71,0.00,,,0.00,Wunderground v.1.15,2013-02-06 08:26:00,
2013-02-06 01:32:00,31.8,23.5,29.99,WSW,256,1.0,1.0,71,0.00,,,0.00,Wunderground v.1.15,2013-02-06 08:32:00,
2013-02-06 01:38:00,31.6,23.6,29.99,WSW,256,1.0,2.0,72,0.00,,,0.00,Wunderground v.1.15,2013-02-06 08:38:00,
2013-02-06 01:44:00,31.7,23.7,29.99,WSW,256,1.0,1.0,72,0.00,,,0.00,Wunderground v.1.15,2013-02-06 08:44:00,
2013-02-06 01:50:00,31.9,23.9,29.99,WSW,256,1.0,1.0,72,0.00,,,0.00,Wunderground v.1.15,2013-02-06 08:50:00,
2013-02-06 01:56:00,32.5,24.1,29.99,WSW,256,1.0,2.0,71,0.00,,,0.00,Wunderground v.1.15,2013-02-06 08:56:00,
2013-02-06 02:02:00,33.0,24.3,29.99,WSW,256,2.0,3.0,70,0.00,,,0.00,Wunderground v.1.15,2013-02-06 09:02:00,
2013-02-06 02:08:00,33.2,24.1,29.99,WSW,256,2.0,3.0,69,0.00,,,0.00,Wunderground v.1.15,2013-02-06 09:08:00,
2013-02-06 02:14:00,33.5,24.1,29.99,WSW,249,3.0,4.0,68,0.00,,,0.00,Wunderground v.1.15,2013-02-06 09:14:00,
2013-02-06 02:20:00,33.8,24.4,29.98,WSW,255,3.0,3.0,68,0.00,,,0.00,Wunderground v.1.15,2013-02-06 09:20:00,
2013-02-06 02:26:00,34.2,24.0,29.98,WSW,249,4.0,4.0,66,0.00,,,0.00,Wunderground v.1.15,2013-02-06 09:26:00,
2013-02-06 02:32:00,34.3,24.1,29.98,WSW,243,4.0,5.0,66,0.00,,,0.00,Wunderground v.1.15,2013-02-06 09:32:00,
2013-02-06 02:38:00,34.2,24.0,29.98,WSW,239,4.0,5.0,66,0.00,,,0.00,Wunderground v.1.15,2013-02-06 09:38:00,
2013-02-06 02:44:00,34.8,24.2,29.98,WSW,237,4.0,4.0,65,0.00,,,0.00,Wunderground v.1.15,2013-02-06 09:44:00,
2013-02-06 02:50:00,35.7,24.3,29.97,SW,232,4.0,4.0,63,0.00,,,0.00,Wunderground v.1.15,2013-02-06 09:50:00,
2013-02-06 02:56:00,37.1,24.9,29.97,SW,228,4.0,4.0,61,0.00,,,0.00,Wunderground v.1.15,2013-02-06 09:56:00,
2013-02-06 03:02:00,37.8,24.7,29.97,SW,228,3.0,3.0,59,0.00,,,0.00,Wunderground v.1.15,2013-02-06 10:02:00,
2013-02-06 03:08:00,38.2,24.7,29.97,SW,218,2.0,3.0,58,0.00,,,0.00,Wunderground v.1.15,2013-02-06 10:08:00,
2013-02-06 03:14:00,37.8,24.7,29.97,SW,218,2.0,5.0,59,0.00,,,0.00,Wunderground v.1.15,2013-02-06 10:14:00,
2013-02-06 03:20:00,37.8,24.7,29.97,SW,220,3.0,3.0,59,0.00,,,0.00,Wunderground v.1.15,2013-02-06 10:20:00,
2013-02-06 03:26:00,38.3,24.8,29.97,WSW,237,3.0,5.0,58,0.00,,,0.00,Wunderground v.1.15,2013-02-06 10:26:00,
2013-02-06 03:32:00,39.0,25.0,29.97,WSW,247,3.0,3.0,57,0.00,,,0.00,Wunderground v.1.15,2013-02-06 10:32:00,
2013-02-06 03:38:00,39.1,24.7,29.97,WSW,248,4.0,5.0,56,0.00,,,0.00,Wunderground v.1.15,2013-02-06 10:38:00,
2013-02-06 03:44:00,39.0,24.6,29.97,WSW,248,4.0,4.0,56,0.00,,,0.00,Wunderground v.1.15,2013-02-06 10:44:00,
2013-02-06 03:50:00,38.8,24.4,29.97,WSW,245,4.0,4.0,56,0.00,,,0.00,Wunderground v.1.15,2013-02-06 10:50:00,
2013-02-06 03:56:00,38.6,24.2,29.97,WSW,254,4.0,5.0,56,0.00,,,0.00,Wunderground v.1.15,2013-02-06 10:56:00,
2013-02-06 04:02:00,38.9,24.5,29.98,WSW,256,3.0,3.0,56,0.00,,,0.00,Wunderground v.1.15,2013-02-06 11:02:00,
2013-02-06 04:08:00,38.9,24.1,29.98,WSW,258,3.0,4.0,55,0.00,,,0.00,Wunderground v.1.15,2013-02-06 11:08:00,
2013-02-06 04:14:00,38.5,24.1,29.97,WSW,258,2.0,3.0,56,0.00,,,0.00,Wunderground v.1.15,2013-02-06 11:14:00,
2013-02-06 04:20:00,38.0,24.1,29.97,WSW,258,2.0,2.0,57,0.00,,,0.00,Wunderground v.1.15,2013-02-06 11:20:00,
2013-02-06 04:26:00,37.6,23.7,29.97,WSW,258,2.0,3.0,57,0.00,,,0.00,Wunderground v.1.15,2013-02-06 11:26:00,
2013-02-06 04:32:00,37.3,23.9,29.97,WSW,248,3.0,3.0,58,0.00,,,0.00,Wunderground v.1.15,2013-02-06 11:32:00,
2013-02-06 04:38:00,37.8,23.9,29.98,WSW,253,3.0,4.0,57,0.00,,,0.00,Wunderground v.1.15,2013-02-06 11:38:00,
2013-02-06 04:44:00,38.0,24.1,29.98,WSW,251,3.0,3.0,57,0.00,,,0.00,Wunderground v.1.15,2013-02-06 11:44:00,
2013-02-06 04:50:00,38.1,23.8,29.98,WSW,255,3.0,3.0,56,0.00,,,0.00,Wunderground v.1.15,2013-02-06 11:50:00,
2013-02-06 04:56:00,38.1,23.8,29.98,WSW,254,3.0,3.0,56,0.00,,,0.00,Wunderground v.1.15,2013-02-06 11:56:00,
2013-02-06 05:02:00,38.0,23.7,29.99,WSW,253,3.0,3.0,56,0.00,,,0.00,Wunderground v.1.15,2013-02-06 12:02:00,
2013-02-06 05:08:00,38.1,23.8,29.99,WSW,255,3.0,3.0,56,0.00,,,0.00,Wunderground v.1.15,2013-02-06 12:08:00,
2013-02-06 05:14:00,37.8,23.9,29.98,WSW,244,2.0,3.0,57,0.00,,,0.00,Wunderground v.1.15,2013-02-06 12:14:00,
2013-02-06 05:20:00,37.9,24.0,29.98,WSW,246,3.0,3.0,57,0.00,,,0.00,Wunderground v.1.15,2013-02-06 12:20:00,
2013-02-06 05:26:00,38.0,24.1,29.99,WSW,247,2.0,3.0,57,0.00,,,0.00,Wunderground v.1.15,2013-02-06 12:26:00,
2013-02-06 05:32:00,37.2,23.8,29.99,WSW,247,1.0,1.0,58,0.00,,,0.00,Wunderground v.1.15,2013-02-06 12:32:00,
2013-02-06 05:38:00,36.5,23.5,29.99,WSW,248,2.0,2.0,59,0.00,,,0.00,Wunderground v.1.15,2013-02-06 12:38:00,
2013-02-06 05:44:00,36.4,23.8,29.99,WSW,246,2.0,3.0,60,0.00,,,0.00,Wunderground v.1.15,2013-02-06 12:44:00,
2013-02-06 05:50:00,36.4,23.8,29.99,WSW,247,3.0,3.0,60,0.00,,,0.00,Wunderground v.1.15,2013-02-06 12:50:00,
2013-02-06 05:56:00,36.9,23.9,29.99,WSW,255,3.0,3.0,59,0.00,,,0.00,Wunderground v.1.15,2013-02-06 12:56:00,
2013-02-06 06:02:00,37.1,24.1,29.99,West,261,3.0,4.0,59,0.00,,,0.00,Wunderground v.1.15,2013-02-06 13:02:00,
2013-02-06 06:08:00,36.9,23.9,30.00,West,261,2.0,4.0,59,0.00,,,0.00,Wunderground v.1.15,2013-02-06 13:08:00,
2013-02-06 06:14:00,35.9,23.4,30.00,West,261,1.0,2.0,60,0.00,,,0.00,Wunderground v.1.15,2013-02-06 13:14:00,
2013-02-06 06:20:00,34.8,23.5,30.00,SSW,201,1.0,1.0,63,0.00,,,0.00,Wunderground v.1.15,2013-02-06 13:20:00,
2013-02-06 06:26:00,33.4,23.3,30.00,South,190,1.0,1.0,66,0.00,,,0.00,Wunderground v.1.15,2013-02-06 13:26:00,
2013-02-06 06:32:00,33.2,23.4,30.01,South,189,1.0,1.0,67,0.00,,,0.00,Wunderground v.1.15,2013-02-06 13:32:00,
2013-02-06 06:38:00,33.8,23.6,30.01,South,189,0.0,1.0,66,0.00,,,0.00,Wunderground v.1.15,2013-02-06 13:38:00,
2013-02-06 06:44:00,34.3,23.7,30.01,South,189,0.0,0.0,65,0.00,,,0.00,Wunderground v.1.15,2013-02-06 13:44:00,
2013-02-06 06:50:00,34.7,23.8,30.01,South,189,0.0,1.0,64,0.00,,,0.00,Wunderground v.1.15,2013-02-06 13:50:00,
2013-02-06 06:56:00,34.9,23.6,30.01,South,189,1.0,1.0,63,0.00,,,0.00,Wunderground v.1.15,2013-02-06 13:56:00,
2013-02-06 07:02:00,35.3,24.0,30.01,South,189,0.0,1.0,63,0.00,,,0.00,Wunderground v.1.15,2013-02-06 14:02:00,
2013-02-06 07:08:00,35.9,23.7,30.02,South,189,0.0,1.0,61,0.00,,,0.00,Wunderground v.1.15,2013-02-06 14:08:00,
2013-02-06 07:14:00,36.0,23.8,30.02,South,189,0.0,0.0,61,0.00,,,0.00,Wunderground v.1.15,2013-02-06 14:14:00,
2013-02-06 07:20:00,36.3,23.7,30.02,South,189,0.0,0.0,60,0.00,,,0.00,Wunderground v.1.15,2013-02-06 14:20:00,
2013-02-06 07:26:00,36.6,24.0,30.02,South,189,0.0,0.0,60,0.00,,,0.00,Wunderground v.1.15,2013-02-06 14:26:00,
2013-02-06 07:32:00,36.8,24.2,30.03,South,189,0.0,0.0,60,0.00,,,0.00,Wunderground v.1.15,2013-02-06 14:32:00,
2013-02-06 07:38:00,37.4,24.4,30.03,South,189,0.0,0.0,59,0.00,,,0.00,Wunderground v.1.15,2013-02-06 14:38:00,
2013-02-06 07:44:00,37.7,24.2,30.03,South,189,0.0,0.0,58,0.00,,,0.00,Wunderground v.1.15,2013-02-06 14:44:00,
2013-02-06 07:50:00,38.0,24.5,30.03,South,189,0.0,0.0,58,0.00,,,0.00,Wunderground v.1.15,2013-02-06 14:50:00,
2013-02-06 07:56:00,38.2,24.7,30.04,SSW,195,0.0,2.0,58,0.00,,,0.00,Wunderground v.1.15,2013-02-06 14:56:00,
2013-02-06 08:02:00,37.9,26.0,30.05,SSW,206,1.0,1.0,62,0.00,,,0.00,Wunderground v.1.15,2013-02-06 15:02:00,
2013-02-06 08:08:00,36.5,25.8,30.06,SW,231,1.0,2.0,65,0.00,,,0.00,Wunderground v.1.15,2013-02-06 15:08:00,
2013-02-06 08:14:00,35.5,25.3,30.06,SW,235,1.0,2.0,66,0.00,,,0.00,Wunderground v.1.15,2013-02-06 15:14:00,
2013-02-06 08:20:00,35.5,26.0,30.07,WNW,289,2.0,3.0,68,0.00,,,0.00,Wunderground v.1.15,2013-02-06 15:20:00,
2013-02-06 08:26:00,35.8,26.3,30.07,WNW,289,2.0,3.0,68,0.00,,,0.00,Wunderground v.1.15,2013-02-06 15:26:00,
2013-02-06 08:32:00,36.7,26.4,30.07,WNW,292,2.0,3.0,66,0.00,,,0.00,Wunderground v.1.15,2013-02-06 15:32:00,
2013-02-06 08:38:00,37.8,26.3,30.08,WNW,295,5.0,8.0,63,0.00,,,0.00,Wunderground v.1.15,2013-02-06 15:38:00,
2013-02-06 08:44:00,38.2,26.7,30.07,WNW,289,6.0,6.0,63,0.00,,,0.00,Wunderground v.1.15,2013-02-06 15:44:00,
2013-02-06 08:50:00,38.4,26.5,30.07,West,261,4.0,4.0,62,0.00,,,0.00,Wunderground v.1.15,2013-02-06 15:50:00,
2013-02-06 08:56:00,38.3,27.2,30.07,WSW,242,4.0,4.0,64,0.00,,,0.00,Wunderground v.1.15,2013-02-06 15:56:00,
2013-02-06 09:02:00,38.2,26.7,30.07,WSW,253,3.0,4.0,63,0.00,,,0.00,Wunderground v.1.15,2013-02-06 16:02:00,
2013-02-06 09:08:00,38.2,26.7,30.07,West,259,2.0,4.0,63,0.00,,,0.00,Wunderground v.1.15,2013-02-06 16:08:00,
2013-02-06 09:14:00,38.3,26.8,30.07,West,265,2.0,4.0,63,0.00,,,0.00,Wunderground v.1.15,2013-02-06 16:14:00,
2013-02-06 09:20:00,38.6,27.1,30.07,WSW,255,3.0,3.0,63,0.00,,,0.00,Wunderground v.1.15,2013-02-06 16:20:00,
2013-02-06 09:26:00,39.0,27.5,30.07,WSW,255,2.0,3.0,63,0.00,,,0.00,Wunderground v.1.15,2013-02-06 16:26:00,
2013-02-06 09:32:00,39.9,27.5,30.07,WSW,258,2.0,2.0,61,0.00,,,0.00,Wunderground v.1.15,2013-02-06 16:32:00,
2013-02-06 09:38:00,40.9,28.1,30.08,WSW,258,1.0,2.0,60,0.00,,,0.00,Wunderground v.1.15,2013-02-06 16:38:00,
2013-02-06 09:44:00,41.7,28.0,30.08,WSW,258,0.0,1.0,58,0.00,,,0.00,Wunderground v.1.15,2013-02-06 16:44:00,
2013-02-06 09:50:00,42.6,28.4,30.08,West,260,1.0,1.0,57,0.00,,,0.00,Wunderground v.1.15,2013-02-06 16:50:00,
2013-02-06 09:56:00,43.3,28.2,30.08,NW,312,2.0,4.0,55,0.00,,,0.00,Wunderground v.1.15,2013-02-06 16:56:00,
2013-02-06 10:02:00,44.3,28.7,30.08,NW,320,4.0,5.0,54,0.00,,,0.00,Wunderground v.1.15,2013-02-06 17:02:00,
2013-02-06 10:08:00,45.8,29.2,30.08,NW,312,5.0,6.0,52,0.00,,,0.00,Wunderground v.1.15,2013-02-06 17:08:00,
2013-02-06 10:14:00,47.2,29.5,30.09,NNW,344,6.0,10.0,50,0.00,,,0.00,Wunderground v.1.15,2013-02-06 17:14:00,
2013-02-06 10:20:00,49.4,28.4,30.09,NNW,334,10.0,16.0,44,0.00,,,0.00,Wunderground v.1.15,2013-02-06 17:20:00,
2013-02-06 10:26:00,50.0,27.8,30.09,NW,323,14.0,20.0,42,0.00,,,0.00,Wunderground v.1.15,2013-02-06 17:26:00,
2013-02-06 10:32:00,50.4,28.1,30.09,NNW,328,14.0,15.0,42,0.00,,,0.00,Wunderground v.1.15,2013-02-06 17:32:00,
2013-02-06 10:38:00,50.4,28.1,30.09,NW,321,13.0,18.0,42,0.00,,,0.00,Wunderground v.1.15,2013-02-06 17:38:00,
2013-02-06 10:44:00,50.5,27.7,30.09,NNW,334,14.0,16.0,41,0.00,,,0.00,Wunderground v.1.15,2013-02-06 17:44:00,
2013-02-06 10:50:00,50.1,26.7,30.09,NW,326,13.0,13.0,40,0.00,,,0.00,Wunderground v.1.15,2013-02-06 17:50:00,
2013-02-06 10:56:00,50.2,26.8,30.09,North,349,14.0,17.0,40,0.00,,,0.00,Wunderground v.1.15,2013-02-06 17:56:00,
2013-02-06 11:02:00,50.3,26.9,30.09,NW,321,14.0,17.0,40,0.00,,,0.00,Wunderground v.1.15,2013-02-06 18:02:00,
2013-02-06 11:08:00,50.3,26.3,30.09,NNW,348,15.0,22.0,39,0.00,,,0.00,Wunderground v.1.15,2013-02-06 18:08:00,
2013-02-06 11:14:00,50.1,26.1,30.09,NNW,335,15.0,19.0,39,0.00,,,0.00,Wunderground v.1.15,2013-02-06 18:14:00,
2013-02-06 11:20:00,50.5,26.4,30.09,NW,320,15.0,21.0,39,0.00,,,0.00,Wunderground v.1.15,2013-02-06 18:20:00,
2013-02-06 11:26:00,49.9,25.9,30.09,NNW,339,16.0,21.0,39,0.00,,,0.00,Wunderground v.1.15,2013-02-06 18:26:00,
2013-02-06 11:32:00,50.0,25.4,30.09,North,349,16.0,16.0,38,0.00,,,0.00,Wunderground v.1.15,2013-02-06 18:32:00,
2013-02-06 11:38:00,50.0,26.0,30.09,NNW,343,14.0,16.0,39,0.00,,,0.00,Wunderground v.1.15,2013-02-06 18:38:00,
2013-02-06 11:44:00,50.0,26.0,30.09,NNW,337,15.0,23.0,39,0.00,,,0.00,Wunderground v.1.15,2013-02-06 18:44:00,
2013-02-06 11:50:00,50.7,26.0,30.08,NNW,338,14.0,20.0,38,0.00,,,0.00,Wunderground v.1.15,2013-02-06 18:50:00,
2013-02-06 11:56:00,50.5,25.8,30.09,NNW,338,15.0,20.0,38,0.00,,,0.00,Wunderground v.1.15,2013-02-06 18:56:00,
2013-02-06 12:02:00,50.3,25.6,30.08,NNW,344,16.0,16.0,38,0.00,,,0.00,Wunderground v.1.15,2013-02-06 19:02:00,
2013-02-06 12:08:00,50.3,26.3,30.08,North,354,16.0,24.0,39,0.00,,,0.00,Wunderground v.1.15,2013-02-06 19:08:00,
2013-02-06 12:14:00,50.1,26.1,30.09,NNW,347,15.0,19.0,39,0.00,,,0.00,Wunderground v.1.15,2013-02-06 19:14:00,
2013-02-06 12:20:00,50.3,26.9,30.09,NNW,345,15.0,15.0,40,0.00,,,0.00,Wunderground v.1.15,2013-02-06 19:20:00,
2013-02-06 12:26:00,50.4,27.0,30.09,North,350,14.0,15.0,40,0.00,,,0.00,Wunderground v.1.15,2013-02-06 19:26:00,
2013-02-06 12:32:00,50.0,26.6,30.08,North,354,15.0,15.0,40,0.00,,,0.00,Wunderground v.1.15,2013-02-06 19:32:00,
2013-02-06 12:38:00,50.1,27.3,30.08,NNW,343,15.0,17.0,41,0.00,,,0.00,Wunderground v.1.15,2013-02-06 19:38:00,
2013-02-06 12:44:00,50.0,27.2,30.09,North,349,14.0,15.0,41,0.00,,,0.00,Wunderground v.1.15,2013-02-06 19:44:00,
2013-02-06 12:50:00,50.1,26.7,30.09,NNW,337,15.0,15.0,40,0.00,,,0.00,Wunderground v.1.15,2013-02-06 19:50:00,
2013-02-06 12:56:00,50.1,27.3,30.09,NNW,336,17.0,17.0,41,0.00,,,0.00,Wunderground v.1.15,2013-02-06 19:56:00,
2013-02-06 13:02:00,50.4,27.6,30.09,NNW,332,17.0,18.0,41,0.00,,,0.00,Wunderground v.1.15,2013-02-06 20:02:00,
2013-02-06 13:08:00,50.3,26.9,30.09,NNW,337,17.0,18.0,40,0.00,,,0.00,Wunderground v.1.15,2013-02-06 20:08:00,
2013-02-06 13:14:00,50.3,26.9,30.09,North,4,16.0,17.0,40,0.00,,,0.00,Wunderground v.1.15,2013-02-06 20:14:00,
2013-02-06 13:20:00,49.4,26.7,30.09,NNW,335,16.0,16.0,41,0.00,,,0.00,Wunderground v.1.15,2013-02-06 20:20:00,
2013-02-06 13:26:00,49.3,26.6,30.09,NW,310,17.0,19.0,41,0.00,,,0.00,Wunderground v.1.15,2013-02-06 20:26:00,
2013-02-06 13:32:00,49.4,25.4,30.09,NNW,347,17.0,19.0,39,0.00,,,0.00,Wunderground v.1.15,2013-02-06 20:32:00,
2013-02-06 13:38:00,48.7,24.8,30.09,NW,326,17.0,20.0,39,0.00,,,0.00,Wunderground v.1.15,2013-02-06 20:38:00,
2013-02-06 13:44:00,48.5,24.6,30.09,NNW,334,15.0,17.0,39,0.00,,,0.00,Wunderground v.1.15,2013-02-06 20:44:00,
2013-02-06 13:50:00,48.8,25.5,30.09,NNW,341,15.0,16.0,40,0.00,,,0.00,Wunderground v.1.15,2013-02-06 20:50:00,
2013-02-06 13:56:00,50.0,26.0,30.09,North,354,16.0,19.0,39,0.00,,,0.00,Wunderground v.1.15,2013-02-06 20:56:00,
2013-02-06 14:02:00,49.7,25.1,30.10,NNW,339,15.0,16.0,38,0.00,,,0.00,Wunderground v.1.15,2013-02-06 21:02:00,
2013-02-06 14:08:00,49.4,24.8,30.10,NNW,346,15.0,22.0,38,0.00,,,0.00,Wunderground v.1.15,2013-02-06 21:08:00,
2013-02-06 14:14:00,49.2,24.6,30.10,NW,326,16.0,20.0,38,0.00,,,0.00,Wunderground v.1.15,2013-02-06 21:14:00,
2013-02-06 14:20:00,48.9,24.4,30.10,NNW,331,15.0,15.0,38,0.00,,,0.00,Wunderground v.1.15,2013-02-06 21:20:00,
2013-02-06 14:26:00,48.9,24.4,30.11,NW,326,14.0,18.0,38,0.00,,,0.00,Wunderground v.1.15,2013-02-06 21:26:00,
2013-02-06 14:32:00,48.7,23.6,30.11,NW,326,14.0,20.0,37,0.00,,,0.00,Wunderground v.1.15,2013-02-06 21:32:00,
2013-02-06 14:38:00,49.0,23.8,30.11,NNW,332,14.0,20.0,37,0.00,,,0.00,Wunderground v.1.15,2013-02-06 21:38:00,
2013-02-06 14:44:00,49.0,23.2,30.11,North,354,14.0,15.0,36,0.00,,,0.00,Wunderground v.1.15,2013-02-06 21:44:00,
2013-02-06 14:50:00,48.9,23.7,30.11,NNW,340,14.0,14.0,37,0.00,,,0.00,Wunderground v.1.15,2013-02-06 21:50:00,
2013-02-06 14:56:00,49.0,23.8,30.11,NNW,342,16.0,24.0,37,0.00,,,0.00,Wunderground v.1.15,2013-02-06 21:56:00,
2013-02-06 15:02:00,48.6,23.5,30.12,NW,326,16.0,17.0,37,0.00,,,0.00,Wunderground v.1.15,2013-02-06 22:02:00,
2013-02-06 15:08:00,48.3,23.2,30.12,NNW,341,14.0,19.0,37,0.00,,,0.00,Wunderground v.1.15,2013-02-06 22:08:00,
2013-02-06 15:14:00,47.9,23.5,30.13,NW,318,14.0,18.0,38,0.00,,,0.00,Wunderground v.1.15,2013-02-06 22:14:00,
2013-02-06 15:20:00,47.5,23.7,30.13,NNW,332,13.0,13.0,39,0.00,,,0.00,Wunderground v.1.15,2013-02-06 22:20:00,
2013-02-06 15:26:00,47.3,24.2,30.13,NNW,332,12.0,15.0,40,0.00,,,0.00,Wunderground v.1.15,2013-02-06 22:26:00,
2013-02-06 15:32:00,47.2,24.1,30.14,NNW,330,11.0,14.0,40,0.00,,,0.00,Wunderground v.1.15,2013-02-06 22:32:00,
2013-02-06 15:38:00,47.1,24.0,30.14,NNW,341,10.0,14.0,40,0.00,,,0.00,Wunderground v.1.15,2013-02-06 22:38:00,
2013-02-06 15:44:00,47.0,23.9,30.15,NNW,330,10.0,12.0,40,0.00,,,0.00,Wunderground v.1.15,2013-02-06 22:44:00,
2013-02-06 15:50:00,46.9,23.8,30.15,NW,317,10.0,10.0,40,0.00,,,0.00,Wunderground v.1.15,2013-02-06 22:50:00,
2013-02-06 15:56:00,46.9,24.4,30.15,NW,316,9.0,12.0,41,0.00,,,0.00,Wunderground v.1.15,2013-02-06 22:56:00,
2013-02-06 16:02:00,46.9,24.4,30.15,NW,325,9.0,10.0,41,0.00,,,0.00,Wunderground v.1.15,2013-02-06 23:02:00,
2013-02-06 16:08:00,46.6,23.5,30.15,NNW,338,9.0,12.0,40,0.00,,,0.00,Wunderground v.1.15,2013-02-06 23:08:00,
2013-02-06 16:14:00,46.4,23.4,30.16,NW,318,9.0,9.0,40,0.00,,,0.00,Wunderground v.1.15,2013-02-06 23:14:00,
2013-02-06 16:20:00,46.1,23.7,30.16,NNW,331,8.0,8.0,41,0.00,,,0.00,Wunderground v.1.15,2013-02-06 23:20:00,
2013-02-06 16:26:00,46.0,23.6,30.16,NNW,328,8.0,9.0,41,0.00,,,0.00,Wunderground v.1.15,2013-02-06 23:26:00,
2013-02-06 16:32:00,45.7,23.9,30.16,NW,326,8.0,10.0,42,0.00,,,0.00,Wunderground v.1.15,2013-02-06 23:32:00,
2013-02-06 16:38:00,45.5,23.7,30.16,NW,320,8.0,14.0,42,0.00,,,0.00,Wunderground v.1.15,2013-02-06 23:38:00,
2013-02-06 16:44:00,45.4,23.6,30.17,NW,323,9.0,10.0,42,0.00,,,0.00,Wunderground v.1.15,2013-02-06 23:44:00,
2013-02-06 16:50:00,45.2,23.4,30.17,NNW,336,8.0,8.0,42,0.00,,,0.00,Wunderground v.1.15,2013-02-06 23:50:00,
2013-02-06 16:56:00,45.0,23.3,30.17,NNW,328,8.0,8.0,42,0.00,,,0.00,Wunderground v.1.15,2013-02-06 23:56:00,
2013-02-06 17:02:00,44.9,23.2,30.17,NNW,334,7.0,9.0,42,0.00,,,0.00,Wunderground v.1.15,2013-02-07 00:02:00,
2013-02-06 17:08:00,44.4,23.3,30.18,NNW,336,6.0,9.0,43,0.00,,,0.00,Wunderground v.1.15,2013-02-07 00:08:00,
2013-02-06 17:14:00,43.9,22.8,30.18,NNW,329,4.0,5.0,43,0.00,,,0.00,Wunderground v.1.15,2013-02-07 00:14:00,
2013-02-06 17:20:00,43.4,22.4,30.18,NNW,330,3.0,3.0,43,0.00,,,0.00,Wunderground v.1.15,2013-02-07 00:20:00,
2013-02-06 17:26:00,42.8,22.4,30.19,NNW,328,3.0,5.0,44,0.00,,,0.00,Wunderground v.1.15,2013-02-07 00:26:00,
2013-02-06 17:32:00,42.1,21.7,30.19,NNW,328,3.0,4.0,44,0.00,,,0.00,Wunderground v.1.15,2013-02-07 00:32:00,
2013-02-06 17:38:00,41.4,21.6,30.19,NW,326,3.0,4.0,45,0.00,,,0.00,Wunderground v.1.15,2013-02-07 00:38:00,
2013-02-06 17:44:00,40.6,21.4,30.20,NW,326,1.0,2.0,46,0.00,,,0.00,Wunderground v.1.15,2013-02-07 00:44:00,
2013-02-06 17:50:00,40.3,21.6,30.20,NW,326,0.0,1.0,47,0.00,,,0.00,Wunderground v.1.15,2013-02-07 00:50:00,
2013-02-06 17:56:00,39.8,21.2,30.21,NW,325,0.0,1.0,47,0.00,,,0.00,Wunderground v.1.15,2013-02-07 00:56:00,
2013-02-06 18:02:00,39.6,21.5,30.21,NW,325,0.0,0.0,48,0.00,,,0.00,Wunderground v.1.15,2013-02-07 01:02:00,
2013-02-06 18:08:00,39.6,21.5,30.21,NW,325,0.0,0.0,48,0.00,,,0.00,Wunderground v.1.15,2013-02-07 01:08:00,
2013-02-06 18:14:00,39.7,21.6,30.21,NW,325,0.0,0.0,48,0.00,,,0.00,Wunderground v.1.15,2013-02-07 01:14:00,
2013-02-06 18:20:00,40.0,21.9,30.21,NW,325,0.0,0.0,48,0.00,,,0.00,Wunderground v.1.15,2013-02-07 01:20:00,
2013-02-06 18:26:00,40.0,21.4,30.22,NW,325,1.0,1.0,47,0.00,,,0.00,Wunderground v.1.15,2013-02-07 01:26:00,
2013-02-06 18:32:00,39.4,21.8,30.22,NW,325,0.0,1.0,49,0.00,,,0.00,Wunderground v.1.15,2013-02-07 01:32:00,
2013-02-06 18:38:00,38.8,21.3,30.23,NW,324,0.0,2.0,49,0.00,,,0.00,Wunderground v.1.15,2013-02-07 01:38:00,
2013-02-06 18:44:00,38.3,21.3,30.23,NW,316,2.0,3.0,50,0.00,,,0.00,Wunderground v.1.15,2013-02-07 01:44:00,
2013-02-06 18:50:00,37.9,21.4,30.23,NW,307,2.0,2.0,51,0.00,,,0.00,Wunderground v.1.15,2013-02-07 01:50:00,
2013-02-06 18:56:00,37.5,21.5,30.23,WNW,285,2.0,2.0,52,0.00,,,0.00,Wunderground v.1.15,2013-02-07 01:56:00,
2013-02-06 19:02:00,37.2,21.6,30.24,WSW,249,2.0,3.0,53,0.00,,,0.00,Wunderground v.1.15,2013-02-07 02:02:00,
2013-02-06 19:08:00,36.9,21.3,30.24,WSW,243,2.0,3.0,53,0.00,,,0.00,Wunderground v.1.15,2013-02-07 02:08:00,
2013-02-06 19:14:00,36.8,21.7,30.24,WSW,243,2.0,2.0,54,0.00,,,0.00,Wunderground v.1.15,2013-02-07 02:14:00,
2013-02-06 19:20:00,37.3,21.7,30.24,WSW,242,2.0,2.0,53,0.00,,,0.00,Wunderground v.1.15,2013-02-07 02:20:00,
2013-02-06 19:26:00,37.1,22.0,30.24,WSW,242,2.0,3.0,54,0.00,,,0.00,Wunderground v.1.15,2013-02-07 02:26:00,
2013-02-06 19:32:00,36.6,21.5,30.24,WSW,245,2.0,2.0,54,0.00,,,0.00,Wunderground v.1.15,2013-02-07 02:32:00,
2013-02-06 19:38:00,36.3,21.7,30.24,WSW,245,1.0,2.0,55,0.00,,,0.00,Wunderground v.1.15,2013-02-07 02:38:00,
2013-02-06 19:44:00,35.8,21.6,30.25,WSW,244,2.0,2.0,56,0.00,,,0.00,Wunderground v.1.15,2013-02-07 02:44:00,
2013-02-06 19:50:00,35.5,21.8,30.24,WSW,244,2.0,2.0,57,0.00,,,0.00,Wunderground v.1.15,2013-02-07 02:50:00,
2013-02-06 19:56:00,35.4,21.7,30.24,WSW,243,2.0,3.0,57,0.00,,,0.00,Wunderground v.1.15,2013-02-07 02:56:00,
2013-02-06 20:02:00,35.4,22.1,30.24,WSW,239,3.0,3.0,58,0.00,,,0.00,Wunderground v.1.15,2013-02-07 03:02:00,
2013-02-06 20:08:00,35.3,22.0,30.25,SW,233,2.0,3.0,58,0.00,,,0.00,Wunderground v.1.15,2013-02-07 03:08:00,
2013-02-06 20:14:00,35.0,22.1,30.25,SW,233,2.0,3.0,59,0.00,,,0.00,Wunderground v.1.15,2013-02-07 03:14:00,
2013-02-06 20:20:00,35.2,22.3,30.25,WSW,244,3.0,3.0,59,0.00,,,0.00,Wunderground v.1.15,2013-02-07 03:20:00,
2013-02-06 20:26:00,35.4,22.5,30.25,WSW,256,3.0,4.0,59,0.00,,,0.00,Wunderground v.1.15,2013-02-07 03:26:00,
2013-02-06 20:32:00,35.5,22.2,30.26,West,262,2.0,3.0,58,0.00,,,0.00,Wunderground v.1.15,2013-02-07 03:32:00,
2013-02-06 20:38:00,35.2,21.9,30.26,West,261,1.0,3.0,58,0.00,,,0.00,Wunderground v.1.15,2013-02-07 03:38:00,
2013-02-06 20:44:00,34.7,21.8,30.27,West,261,1.0,2.0,59,0.00,,,0.00,Wunderground v.1.15,2013-02-07 03:44:00,
2013-02-06 20:50:00,34.1,22.0,30.27,West,260,2.0,2.0,61,0.00,,,0.00,Wunderground v.1.15,2013-02-07 03:50:00,
2013-02-06 20:56:00,33.5,21.9,30.27,West,260,2.0,3.0,62,0.00,,,0.00,Wunderground v.1.15,2013-02-07 03:56:00,
2013-02-06 21:02:00,33.7,22.4,30.26,WSW,252,2.0,2.0,63,0.00,,,0.00,Wunderground v.1.15,2013-02-07 04:02:00,
2013-02-06 21:08:00,34.7,22.6,30.26,WSW,239,3.0,4.0,61,0.00,,,0.00,Wunderground v.1.15,2013-02-07 04:08:00,
2013-02-06 21:14:00,35.8,22.5,30.26,SSW,206,3.0,4.0,58,0.00,,,0.00,Wunderground v.1.15,2013-02-07 04:14:00,
2013-02-06 21:20:00,35.0,22.1,30.26,SSW,204,3.0,3.0,59,0.00,,,0.00,Wunderground v.1.15,2013-02-07 04:20:00,
2013-02-06 21:26:00,35.0,22.5,30.26,SSW,211,3.0,4.0,60,0.00,,,0.00,Wunderground v.1.15,2013-02-07 04:26:00,
2013-02-06 21:32:00,35.1,22.6,30.26,SW,234,2.0,2.0,60,0.00,,,0.00,Wunderground v.1.15,2013-02-07 04:32:00,
2013-02-06 21:38:00,35.3,22.4,30.26,SW,234,2.0,2.0,59,0.00,,,0.00,Wunderground v.1.15,2013-02-07 04:38:00,
2013-02-06 21:44:00,35.2,22.3,30.27,WSW,255,2.0,3.0,59,0.00,,,0.00,Wunderground v.1.15,2013-02-07 04:44:00,
2013-02-06 21:50:00,34.3,21.8,30.28,West,265,2.0,2.0,60,0.00,,,0.00,Wunderground v.1.15,2013-02-07 04:50:00,
2013-02-06 21:56:00,32.3,21.1,30.28,WSW,249,2.0,2.0,63,0.00,,,0.00,Wunderground v.1.15,2013-02-07 04:56:00,
2013-02-06 22:00:00,31.4,21.3,30.28,WSW,245,2.0,2.0,66,0.00,,,0.00,Wunderground v.1.15,2013-02-07 05:00:00,
2013-02-06 22:02:00,31.2,21.5,30.27,WSW,246,2.0,2.0,67,0.00,,,0.00,Wunderground v.1.15,2013-02-07 05:02:00,
2013-02-06 22:06:00,31.4,22.1,30.28,WSW,253,2.0,2.0,68,0.00,,,0.00,Wunderground v.1.15,2013-02-07 05:06:00,
2013-02-06 22:08:00,31.5,22.1,30.28,WSW,256,2.0,2.0,68,0.00,,,0.00,Wunderground v.1.15,2013-02-07 05:08:00,
2013-02-06 22:14:00,31.5,21.8,30.28,West,270,2.0,3.0,67,0.00,,,0.00,Wunderground v.1.15,2013-02-07 05:14:00,
2013-02-06 22:20:00,31.0,21.7,30.29,West,265,2.0,5.0,68,0.00,,,0.00,Wunderground v.1.15,2013-02-07 05:20:00,
2013-02-06 22:26:00,30.6,21.6,30.29,West,262,3.0,5.0,69,0.00,,,0.00,Wunderground v.1.15,2013-02-07 05:26:00,
2013-02-06 22:32:00,30.4,21.8,30.29,WSW,237,3.0,4.0,70,0.00,,,0.00,Wunderground v.1.15,2013-02-07 05:32:00,
2013-02-06 22:38:00,30.6,22.0,30.29,WSW,240,3.0,4.0,70,0.00,,,0.00,Wunderground v.1.15,2013-02-07 05:38:00,
2013-02-06 22:44:00,31.1,22.5,30.29,WSW,239,3.0,3.0,70,0.00,,,0.00,Wunderground v.1.15,2013-02-07 05:44:00,
2013-02-06 22:50:00,31.6,22.6,30.29,WSW,238,2.0,2.0,69,0.00,,,0.00,Wunderground v.1.15,2013-02-07 05:50:00,
2013-02-06 22:56:00,32.1,23.1,30.30,WSW,239,2.0,2.0,69,0.00,,,0.00,Wunderground v.1.15,2013-02-07 05:56:00,
2013-02-06 23:02:00,32.6,22.8,30.30,West,270,2.0,2.0,67,0.00,,,0.00,Wunderground v.1.15,2013-02-07 06:02:00,
2013-02-06 23:08:00,32.3,22.6,30.30,West,259,2.0,2.0,67,0.00,,,0.00,Wunderground v.1.15,2013-02-07 06:08:00,
2013-02-06 23:14:00,31.6,22.2,30.30,WSW,250,3.0,4.0,68,0.00,,,0.00,Wunderground v.1.15,2013-02-07 06:14:00,
2013-02-06 23:20:00,31.4,22.4,30.30,WSW,242,4.0,4.0,69,0.00,,,0.00,Wunderground v.1.15,2013-02-07 06:20:00,
2013-02-06 23:26:00,31.2,22.2,30.30,SW,236,3.0,4.0,69,0.00,,,0.00,Wunderground v.1.15,2013-02-07 06:26:00,
2013-02-06 23:32:00,31.5,22.5,30.30,SW,235,2.0,2.0,69,0.00,,,0.00,Wunderground v.1.15,2013-02-07 06:32:00,
2013-02-06 23:38:00,32.1,23.1,30.30,SW,235,1.0,2.0,69,0.00,,,0.00,Wunderground v.1.15,2013-02-07 06:38:00,
2013-02-06 23:44:00,32.6,23.2,30.30,SW,235,0.0,0.0,68,0.00,,,0.00,Wunderground v.1.15,2013-02-07 06:44:00,
2013-02-06 23:50:00,32.3,22.6,30.30,SW,235,0.0,0.0,67,0.00,,,0.00,Wunderground v.1.15,2013-02-07 06:50:00,
2013-02-06 23:56:00,31.9,22.5,30.30,SW,235,0.0,1.0,68,0.00,,,0.00,Wunderground v.1.15,2013-02-07 06:56:00,